Regional Weather Roundup
Issued by NWS Cleveland, OH

Home | Current Version | Previous Version | Graphics & Text | Print | Product List | Glossary On
Versions: 1 2 3 4 5 6 7 8 9 10 11 12 13 14 15 16 17 18 19 20 21 22 23 24 25 26 27 28 29 30 31 32 33 34 35 36 37 38 39 40 41 42 43 44 45 46 47 48 49 50
000
ASUS41 KCLE 310310
RWRCLE
OHIO REGIONAL WEATHER ROUNDUP
NATIONAL WEATHER SERVICE WILMINGTON, OH
1100 PM EDT WED JUL 30 2014

NOTE: "FAIR" INDICATES FEW OR NO CLOUDS BELOW 12,000 FEET WITH NO
SIGNIFICANT WEATHER AND/OR OBSTRUCTIONS TO VISIBILITY.

OHZ001>008-015>018-024>027-034-035-043-044-310400-
   NORTHWEST OHIO

CITY           SKY/WX    TMP DP  RH WIND       PRES   REMARKS
DEFIANCE       PTCLDY    63  56  78 CALM      30.02S
FINDLAY        MOCLDY    66  58  75 W5        30.01S
TOLEDO EXPRESS CLEAR     59  56  89 CALM      30.02R
TOLEDO METCALF PTCLDY    62  58  86 S3        30.02S
LIMA           LGT RAIN  68  62  81 S3        30.03S
$$

OHZ009>014-019>023-028>033-038-089-310400-
   NORTHEAST OHIO

CITY           SKY/WX    TMP DP  RH WIND       PRES   REMARKS
CLE-HOPKINS    MOCLDY    62  59  90 S7        30.04R
CLE-LAKEFRONT  LGT RAIN  64  60  87 W7        30.02R
CUY CO. ARPT   CLOUDY    66  59  77 S9        30.02S
LORAIN-ELYRIA  MOCLDY    66  61  84 CALM      30.03S
ASHTABULA      MOCLDY    61  57  87 S3        30.03S
AKRON-CANTON   TSTM      60  54  80 VRB5G24   30.05R
WOOSTER        PTCLDY    59  57  93 CALM      30.04F
MANSFIELD      CLEAR     61  58  90 S3        30.04S
YOUNGSTOWN     CLOUDY    61  57  87 CALM      30.04S
$$

OHZ042-051>053-060>062-070>072-077>081-310400-
  SOUTHWEST OHIO

CITY           SKY/WX    TMP DP  RH WIND       PRES   REMARKS
CINC-COVINGTON MOCLDY    69  58  67 SW3       30.07S
CINC-LUNKEN    MOCLDY    68  63  84 NE3       30.06S
HAMILTON       MOCLDY    66  64  93 CALM      30.06S
DAYTON         PTCLDY    66  59  78 SW7       30.06R
WRIGHT-PAT AFB PTCLDY    65  60  84 S3        30.05S
DAYTON GENERAL CLOUDY    69  59  70 CALM      30.05S
WILMINGTON     CLOUDY    63  60  90 S3        30.06S
$$

OHZ036-037-039>041-045>050-054>059-063>069-073>076-082>088-310400-
  CENTRAL AND SOUTHEAST OHIO

CITY           SKY/WX    TMP DP  RH WIND       PRES   REMARKS
COLUMBUS       PTCLDY    66  59  78 S6        30.05R
OSU AIRPORT    MOCLDY    67  60  78 SW10G18   30.05R
BOLTON FIELD   CLOUDY    63  62  98 SW6       30.06R
RICKENBACK AFB MOCLDY    62  56  82 S6        30.06R
NEWARK         PTCLDY    63  59  87 S6        30.04F
MARION         CLEAR     65  57  75 SW5       30.03S
LANCASTER      PTCLDY    62  58  86 S5        30.06S
ZANESVILLE     CLEAR     62  59  90 S6        30.05F
NEW PHILLY     PTCLDY    59  59 100 SE5       30.05F FOG
$$


USA.gov is the U.S. government's official web portal to all federal, state and local government web resources and services.